Simultaneous Nadir Overpasses (SNOs) Predictions

Prediction of SNOs between AQUA and GOES-15 Satellite Orbit:

Table of predicted SNOs for the next 14.0 days since TLE Epoch: 9/11/2015
Index Date Time (AQUA) AQUA Lat,Lon GOES-15 Lat,Lon Distance(km) Time Diff (sec)
1 09/13/2015 10:37:54 0.40,-135.53 0.33,-135.24 32.91 80
2 09/15/2015 10:25:42 -0.20,-132.57 0.34,-135.26 304.60 80
3 09/15/2015 22:47:06 -0.83,-137.78 -0.32,-135.28 283.78 80
4 09/17/2015 22:34:55 -0.22,-134.82 -0.32,-135.28 53.06 80
5 09/19/2015 22:22:43 0.41,-131.86 -0.32,-135.28 389.20 80
6 09/20/2015 10:43:58 0.67,-137.02 0.31,-135.27 199.39 80
7 09/22/2015 10:31:46 0.03,-134.07 0.31,-135.25 135.65 80
8 09/22/2015 22:53:10 -1.11,-139.26 -0.29,-135.26 454.29 80
9 09/24/2015 10:19:34 -0.55,-131.10 0.30,-135.24 470.05 80
10 09/24/2015 22:40:57 -0.52,-136.29 -0.29,-135.24 119.87 80




NCC Satellite Simultaneous Nadir Overpasses (SNOs) Prediction Service
